Stations météo

Publicité
Rheinstetten, Allemagne (10731): Température de l'air & dewpoint: 07.12.2018 12:00:00 - 13.12.2018 12:00:00 (CET)Rheinstetten, Allemagne (10731): Température de l'air 5cm & Température de l'air -5cm: 07.12.2018 12:00:00 - 13.12.2018 12:00:00 (CET)Rheinstetten, Allemagne (10731): Température de l'air -20cm & Température de l'air -100cm: 07.12.2018 12:00:00 - 13.12.2018 12:00:00 (CET)Rheinstetten, Allemagne (10731): Vitesse du vent & gusts: 07.12.2018 12:00:00 - 13.12.2018 12:00:00 (CET)Rheinstetten, Allemagne (10731): Direction du vent: 07.12.2018 12:00:00 - 13.12.2018 12:00:00 (CET)Rheinstetten, Allemagne (10731): reduced air pressure: 07.12.2018 12:00:00 - 13.12.2018 12:00:00 (CET)Rheinstetten, Allemagne (10731): visibility: 07.12.2018 12:00:00 - 13.12.2018 12:00:00 (CET)Rheinstetten, Allemagne (10731): Ensoleillement: 07.12.2018 12:00:00 - 13.12.2018 12:00:00 (CET)Rheinstetten, Allemagne (10731): Quantités de précipitations: 07.12.2018 12:00:00 - 13.12.2018 12:00:00 (CET)
Date & Time tt [°C] td [°C] tt 5cm [°C] tt -5cm [°C] tt -20cm [°C] tt -100cm [°C] ff [km/h] ff [knt] fx [km/h] fx [knt] dd ppp [hPa] vv [km] sd [min] rr [mm]
13.12.2018 12:00:00 0,9 -3,5 0,7 0,2 2,6 8,2 21 11 35 19 ENE 1017,9 27 25 0,0
13.12.2018 11:00:00 0,6 -3,3 0,2 0,2 2,6 8,2 21 11 33 18 ENE 1018,5 22 49 0,0
13.12.2018 10:00:00 -0,1 -3,1 0,0 0,1 2,7 8,3 14 8 23 12 NE 1018,6 21 8 0,0
13.12.2018 09:00:00 -0,5 -3,1 -1,6 0,2 2,8 8,3 16 9 23 13 NE 1018,8 24 0 0,0
13.12.2018 08:00:00 -0,5 -2,8 -2,0 0,3 2,9 8,3 11 6 18 10 ENE 1018,9 22 0 0,0
13.12.2018 07:00:00 -0,4 -2,6 -1,8 0,4 3,0 8,3 12 6 22 12 ENE 1018,9 23 0 0,0
13.12.2018 06:00:00 -0,3 -2,6 -1,5 0,5 3,1 8,4 15 8 25 14 NE 1019,3 24 0 0,0
13.12.2018 05:00:00 -0,5 -2,7 -1,8 0,5 3,2 8,4 14 7 18 10 NE 1019,9 29 0 0,0
13.12.2018 04:00:00 -0,1 -2,5 -1,5 0,6 3,3 8,4 11 6 20 11 NE 1020,4 31 0 0,0
13.12.2018 03:00:00 0,4 -2,1 -1,0 0,6 3,5 8,4 15 8 22 12 NE 1020,8 39 0 0,0
13.12.2018 02:00:00 0,4 -1,7 -1,0 0,6 3,7 8,4 13 7 23 12 NE 1021,2 38 0 0,0
13.12.2018 01:00:00 0,7 -1,3 -0,8 0,8 4,0 8,4 16 8 22 12 NNE 1021,4 43 0 0,0
13.12.2018 00:00:00 1,9 -0,5 0,3 1,4 4,2 8,5 13 7 22 12 NE 1021,7 43 0 0,0
12.12.2018 23:00:00 2,5 0,2 1,1 2,3 4,3 8,5 13 7 19 10 NE 1021,8 34 0 0,0
12.12.2018 22:00:00 3,1 0,6 2,4 2,6 4,4 8,5 13 7 19 10 NNE 1022,1 27 0 0,0
12.12.2018 21:00:00 2,7 0,8 1,2 2,5 4,6 8,6 11 6 18 10 NE 1022,4 25 0 0,0
12.12.2018 20:00:00 3,2 1,4 2,5 3,2 4,7 8,6 11 6 17 9 NE 1022,6 18 0 0,0
12.12.2018 19:00:00 3,4 1,6 2,8 3,4 4,7 8,6 10 5 17 9 NE 1022,7 15 0 0,0
12.12.2018 18:00:00 3,6 1,1 3,0 3,7 4,8 8,6 8 4 11 6 NE 1022,9 22 0 0,0
12.12.2018 17:00:00 3,8 0,5 3,1 4,0 4,8 8,6 9 5 12 7 ENE 1023,1 25 0 0,0
12.12.2018 16:00:00 4,0 0,7 3,7 4,6 4,7 8,7 7 4 11 6 ENE 1023,2 27 0 0,0
12.12.2018 15:00:00 4,2 0,7 4,2 5,5 4,5 8,7 9 5 15 8 ENE 1023,4 24 40 0,0
12.12.2018 14:00:00 3,7 0,8 6,1 4,6 4,2 8,7 4 2 18 10 ESE 1023,9 16 17 0,0
12.12.2018 13:00:00 3,3 1,7 3,7 4,4 4,0 8,7 8 4 10 6 E 1024,4 9 0 0,0
12.12.2018 12:00:00 2,4 1,3 2,5 3,7 3,7 8,7 4 2 6 3 SSW 1024,9 8 0 0,0
12.12.2018 11:00:00 2,1 0,7 2,3 3,1 3,5 8,8 3 1 4 2 SW 1025,3 8 0 0,0
12.12.2018 10:00:00 1,3 0,7 1,6 2,1 3,4 8,8 2 1 4 2 SSW 1025,5 4,9 0 0,0
12.12.2018 09:00:00 0,7 0,1 0,5 1,5 3,5 8,8 4 2 6 3 WSW 1025,3 8 0 0,0
12.12.2018 08:00:00 0,4 0,0 -0,4 1,4 3,5 8,9 3 2 5 3 SE 1025,1 6 0 0,0
12.12.2018 07:00:00 0,7 0,2 0,2 1,4 3,5 8,9 0 0 8 5 N 1025,1 9 0 0,0
12.12.2018 06:00:00 0,5 -0,1 0,0 1,2 3,6 8,9 6 4 13 7 WSW 1025,1 10 0 0,0
12.12.2018 05:00:00 0,7 0,3 0,2 1,2 3,6 8,9 8 4 14 7 SW 1024,9 7 0 0,0
12.12.2018 04:00:00 0,8 0,3 0,2 1,2 3,7 8,9 11 6 15 8 SW 1025,0 7 0 0,0
12.12.2018 03:00:00 0,7 0,2 0,0 1,1 3,8 9,0 8 4 10 6 SW 1025,0 7 0 0,0
12.12.2018 02:00:00 0,5 -0,3 -1,1 1,2 4,0 9,0 5 3 10 6 WSW 1025,1 8 0 0,0
12.12.2018 01:00:00 1,2 0,5 0,1 1,5 4,1 9,0 8 4 16 9 SW 1025,3 11 0 0,0
12.12.2018 00:00:00 1,0 0,5 0,3 1,4 4,2 9,0 10 5 16 8 SW 1025,6 8 0 0,0
11.12.2018 23:00:00 1,1 0,3 0,2 1,5 4,4 9,0 11 6 19 11 SW 1025,6 12 0 0,0
11.12.2018 22:00:00 1,2 0,3 0,2 1,9 4,5 9,1 14 7 20 11 SW 1025,4 13 0 0,1
11.12.2018 21:00:00 1,8 0,9 1,5 2,5 4,6 9,1 15 8 18 10 SSW 1025,5 13 0 0,3
11.12.2018 20:00:00 2,3 0,6 1,9 2,6 4,7 9,1 10 5 15 8 SW 1025,7 25 0 0,0
11.12.2018 19:00:00 2,5 0,4 2,1 2,3 4,9 9,1 10 6 16 9 WSW 1025,6 27 0 0,0
11.12.2018 18:00:00 2,1 0,3 0,7 2,2 5,1 9,1 13 7 16 9 SW 1025,0 27 0 0,0
11.12.2018 17:00:00 2,5 0,7 1,0 3,0 5,3 9,1 11 6 24 13 WSW 1024,9 22 0 0,0
11.12.2018 16:00:00 3,4 1,3 2,8 4,0 5,3 9,2 18 10 27 15 SW 1024,9 22 2 0,0
11.12.2018 15:00:00 4,1 1,6 4,7 4,7 5,3 9,2 20 11 28 15 SW 1025,0 25 7 0,0
11.12.2018 14:00:00 3,7 1,5 4,1 4,9 5,1 9,2 20 11 27 15 SW 1025,1 29 0 0,0
11.12.2018 13:00:00 3,5 1,3 4,1 4,5 4,9 9,2 20 11 24 13 SW 1025,2 27 0 0,0
11.12.2018 12:00:00 3,1 1,2 3,6 4,1 4,8 9,2 16 9 30 16 WSW 1025,9 24 1 0,0
11.12.2018 11:00:00 3,6 1,3 4,1 3,6 4,7 9,2 16 9 24 13 SW 1026,0 33 1 0,0
11.12.2018 10:00:00 3,1 1,0 2,7 2,9 4,7 9,3 19 10 27 15 SW 1025,9 28 0 0,0
11.12.2018 09:00:00 2,8 1,1 2,5 2,4 4,8 9,3 17 9 26 14 SW 1025,9 28 0 0,0
11.12.2018 08:00:00 2,7 1,0 2,0 2,1 4,9 9,3 18 10 24 13 SW 1025,4 32 0 0,0
11.12.2018 07:00:00 2,4 0,7 1,2 2,4 5,0 9,3 16 9 23 12 SW 1025,4 34 0 0,0
11.12.2018 06:00:00 2,9 0,9 2,3 2,6 5,1 9,3 15 8 21 12 SW 1025,4 39 0 0,0
11.12.2018 05:00:00 3,0 1,0 2,1 2,5 5,3 9,3 15 8 24 13 SW 1025,4 39 0 0,0
11.12.2018 04:00:00 3,0 0,7 2,0 3,0 5,4 9,3 15 8 25 14 WSW 1025,3 45 0 0,0
11.12.2018 03:00:00 3,6 1,5 3,0 3,1 5,5 9,3 17 9 23 12 SW 1025,3 40 0 0,0
11.12.2018 02:00:00 3,1 1,7 2,3 2,8 5,7 9,3 16 9 20 11 SW 1025,3 38 0 0,0
11.12.2018 01:00:00 3,6 2,2 2,5 3,1 5,9 9,4 15 8 21 11 SW 1025,2 36 0 0,0
11.12.2018 00:00:00 4,0 2,1 3,0 3,6 6,1 9,4 14 8 18 10 SW 1025,3 50 0 0,0
10.12.2018 23:00:00 3,8 2,2 1,9 3,9 6,3 9,4 11 6 19 10 SW 1025,2 42 0 0,0
10.12.2018 22:00:00 4,8 3,0 3,7 4,9 6,4 9,4 11 6 14 8 SW 1024,6 41 0 0,0
10.12.2018 21:00:00 5,0 2,9 3,8 4,9 6,5 9,4 3 2 25 13 NNE 1024,5 43 0 0,2
10.12.2018 20:00:00 5,7 2,8 5,3 4,9 6,6 9,4 20 11 32 18 WSW 1023,9 52 0 0,0
10.12.2018 19:00:00 6,1 2,3 5,5 4,9 6,7 9,4 23 12 36 19 WSW 1023,7 64 0 0,0
10.12.2018 18:00:00 6,2 1,8 5,5 4,8 6,9 9,4 24 13 33 18 WSW 1023,4 70 0 0,0
10.12.2018 17:00:00 5,9 1,8 4,7 5,3 7,1 9,4 20 11 26 14 WSW 1023,2 57 0 0,0
10.12.2018 16:00:00 6,7 1,5 5,3 6,1 7,1 9,4 9 5 16 9 WSW 1023,0 63 1 0,0
10.12.2018 15:00:00 7,4 1,6 7,4 6,9 7,1 9,4 11 6 30 16 W 1023,1 59 30 0,0
10.12.2018 14:00:00 7,0 1,4 7,4 7,1 6,9 9,5 21 12 31 17 W 1023,4 57 28 0,0
10.12.2018 13:00:00 7,1 1,8 7,1 7,4 6,7 9,5 23 12 38 20 W 1024,0 49 31 0,0
10.12.2018 12:00:00 6,8 2,9 7,3 7,1 6,4 9,5 19 10 32 17 WSW 1024,3 52 21 0,0
10.12.2018 11:00:00 6,0 2,8 6,2 5,6 6,3 9,5 22 12 30 16 SW 1024,4 53 13 0,0
10.12.2018 10:00:00 5,5 2,8 5,0 4,9 6,3 9,5 18 10 23 12 SW 1023,9 45 11 0,0
10.12.2018 09:00:00 5,4 2,3 5,1 4,4 6,4 9,5 16 9 24 13 WSW 1023,4 59 13 0,0
10.12.2018 08:00:00 5,3 2,2 3,9 4,4 6,5 9,5 18 10 25 14 WSW 1022,7 48 0 0,0
10.12.2018 07:00:00 5,5 3,0 4,2 4,8 6,6 9,5 15 8 35 19 W 1022,2 44 0 0,6
10.12.2018 06:00:00 4,7 2,3 3,9 5,0 6,7 9,5 16 9 31 17 NNW 1022,0 6 0 0,1
10.12.2018 05:00:00 6,0 3,0 5,4 4,9 6,8 9,5 19 10 31 17 WSW 1021,1 57 0 0,0
10.12.2018 04:00:00 6,0 3,0 5,4 4,9 6,9 9,5 23 12 34 19 SW 1020,5 55 0 0,0
10.12.2018 03:00:00 5,9 2,8 4,7 4,9 7,0 9,5 23 12 33 18 SW 1019,9 61 0 0,0
10.12.2018 02:00:00 6,8 3,6 6,2 5,5 7,2 9,5 20 11 29 16 WSW 1019,0 54 0 0,0
10.12.2018 01:00:00 6,8 3,3 5,7 5,3 7,3 9,5 19 10 28 15 W 1018,1 58 0 0,0
10.12.2018 00:00:00 6,9 4,0 6,3 5,6 7,4 9,5 14 8 24 13 WSW 1017,4 65 0 0,0
09.12.2018 23:00:00 6,9 4,6 5,8 5,9 7,6 9,5 17 9 31 17 WSW 1016,3 56 0 0,0
09.12.2018 22:00:00 7,4 5,2 6,6 6,1 7,7 9,5 24 13 34 19 WSW 1015,1 64 0 0,0
09.12.2018 21:00:00 7,4 5,2 6,4 6,4 7,8 9,6 20 11 30 16 WSW 1014,0 58 0 0,0
09.12.2018 20:00:00 7,7 5,6 5,9 6,7 7,9 9,6 16 8 29 15 SW 1012,3 58 0 0,3
09.12.2018 19:00:00 8,4 5,8 7,9 7,3 8,0 9,6 20 11 36 20 SW 1011,0 55 0 0,0
09.12.2018 18:00:00 8,3 6,2 7,8 7,4 8,0 9,6 26 14 37 20 SW 1009,2 58 0 0,0
09.12.2018 17:00:00 8,2 6,5 7,3 7,5 8,0 9,6 20 11 48 26 WSW 1008,3 14 0 0,3
09.12.2018 16:00:00 8,2 6,3 7,2 7,6 8,0 9,6 33 18 46 25 SW 1006,8 20 0 0,1
09.12.2018 15:00:00 8,4 6,2 7,7 7,8 8,0 9,6 29 16 55 30 SW 1006,3 23 0 0,3
09.12.2018 14:00:00 8,4 5,9 7,6 7,8 7,9 9,6 42 23 60 33 WSW 1005,4 34 0 0,1
09.12.2018 13:00:00 9,6 5,2 9,5 7,9 7,8 9,6 39 21 69 37 WSW 1005,2 46 0 0,0
09.12.2018 12:00:00 8,9 5,3 8,8 7,6 7,8 9,6 37 20 61 33 WSW 1005,6 32 0 0,1
09.12.2018 11:00:00 8,9 5,0 7,6 7,3 7,7 9,6 36 20 59 32 WSW 1006,1 21 0 0,0
09.12.2018 10:00:00 9,3 4,4 8,6 7,1 7,7 9,6 39 21 64 35 WSW 1005,7 29 0 0,0
09.12.2018 09:00:00 9,0 4,2 8,4 6,8 7,8 9,6 37 20 54 29 WSW 1005,4 40 0 0,0
09.12.2018 08:00:00 8,8 4,1 8,2 6,8 7,9 9,6 34 19 59 32 WSW 1004,8 50 0 0,0
09.12.2018 07:00:00 9,4 4,4 8,7 7,1 7,9 9,6 37 20 57 31 WSW 1003,6 43 0 0,0
09.12.2018 06:00:00 9,3 5,5 8,2 7,3 7,9 9,6 29 16 56 31 WSW 1002,8 46 0 0,1
09.12.2018 05:00:00 9,7 5,1 8,9 7,3 8,0 9,6 37 20 65 35 WSW 1002,7 34 0 0,0
09.12.2018 04:00:00 9,3 6,3 7,9 7,6 8,0 9,7 31 17 69 37 WSW 1002,2 49 0 0,8
09.12.2018 03:00:00 10,8 5,4 9,8 7,6 7,9 9,7 37 20 61 33 SW 1001,9 68 0 0,0
09.12.2018 02:00:00 10,0 6,9 9,2 7,7 7,9 9,7 38 20 62 34 SW 1002,3 74 0 0,5
09.12.2018 01:00:00 9,2 7,5 8,1 7,7 7,8 9,7 40 22 71 38 SW 1002,7 26 0 1,4
09.12.2018 00:00:00 9,6 6,8 8,0 7,5 7,8 9,7 46 25 74 40 SW 1002,8 12 0 0,2
08.12.2018 23:00:00 9,4 6,0 8,8 7,3 7,7 9,7 45 25 67 36 SW 1004,6 75 0 0,0
08.12.2018 22:00:00 8,8 5,9 7,7 7,1 7,7 9,7 36 20 55 30 SW 1006,5 73 0 0,5
08.12.2018 21:00:00 8,4 6,2 7,0 7,0 7,7 9,7 44 24 63 34 SW 1008,1 9 0 0,3
08.12.2018 20:00:00 8,8 5,3 7,9 7,0 7,7 9,7 43 23 64 34 SW 1009,3 41 0 0,1
08.12.2018 19:00:00 8,3 5,5 7,0 6,9 7,7 9,7 37 20 58 32 SW 1010,7 24 0 0,1
08.12.2018 18:00:00 8,0 6,0 6,9 6,9 7,7 9,7 38 21 61 33 SW 1011,7 18 0 0,0
08.12.2018 17:00:00 7,9 5,7 6,8 7,0 7,7 9,7 36 19 61 33 SW 1012,4 49 0 0,2
08.12.2018 16:00:00 8,1 5,7 7,1 7,0 7,7 9,7 36 19 55 30 SW 1012,4 13 0 0,0
08.12.2018 15:00:00 7,9 5,4 7,0 7,1 7,7 9,7 30 16 52 28 SW 1012,5 53 0 0,4
08.12.2018 14:00:00 7,5 6,0 6,8 7,2 7,6 9,7 35 19 53 29 SW 1012,4 12 0 0,1
08.12.2018 13:00:00 7,3 5,3 6,3 6,7 7,6 9,7 36 19 53 29 SW 1012,8 13 0 0,7
08.12.2018 12:00:00 7,0 5,0 6,0 6,5 7,6 9,7 35 19 60 33 SW 1012,7 15 0 1,1
08.12.2018 11:00:00 7,2 4,4 5,8 6,4 7,6 9,7 37 20 64 35 SW 1013,3 11 0 0,4
08.12.2018 10:00:00 7,2 3,7 6,1 6,2 7,6 9,7 39 21 58 31 SW 1013,1 16 0 0,2
08.12.2018 09:00:00 7,2 2,8 6,6 6,0 7,7 9,6 40 22 56 30 SW 1013,6 39 0 0,0
08.12.2018 08:00:00 7,0 2,8 6,6 6,0 7,8 9,6 36 19 49 26 SW 1014,1 44 0 0,0
08.12.2018 07:00:00 7,3 2,7 6,8 6,1 7,9 9,6 35 19 50 27 SW 1014,4 54 0 0,0
08.12.2018 06:00:00 7,3 2,9 6,9 6,2 8,1 9,6 34 19 55 30 SW 1014,1 55 0 0,0
08.12.2018 05:00:00 7,4 2,9 6,9 6,3 8,2 9,6 38 20 63 34 SW 1014,2 62 0 0,0
08.12.2018 04:00:00 7,7 2,9 7,0 6,5 8,4 9,6 32 18 51 28 SW 1014,0 50 0 0,0
08.12.2018 03:00:00 7,9 3,1 7,2 6,6 8,6 9,6 35 19 49 27 SW 1014,0 47 0 0,0
08.12.2018 02:00:00 8,0 3,7 7,4 7,0 8,7 9,6 34 18 49 27 SW 1013,8 55 0 0,1
08.12.2018 01:00:00 8,1 4,3 7,5 7,2 8,9 9,6 34 18 57 31 WSW 1013,2 49 0 0,0
08.12.2018 00:00:00 8,6 4,6 8,0 7,4 9,1 9,6 29 15 43 23 SW 1012,0 41 0 0,0
07.12.2018 23:00:00 8,2 4,3 7,2 7,5 9,3 9,5 25 14 50 27 WSW 1011,1 47 0 0,0
07.12.2018 22:00:00 8,8 5,5 7,8 8,2 9,5 9,5 32 17 48 26 WSW 1009,5 50 0 0,0
07.12.2018 21:00:00 9,1 7,0 8,3 8,9 9,6 9,5 30 16 67 36 WSW 1007,7 75 0 3,5
07.12.2018 20:00:00 10,4 8,2 9,0 9,2 9,7 9,5 33 18 46 25 SW 1005,6 10 0 1,6
07.12.2018 19:00:00 10,9 7,4 10,0 9,3 9,8 9,5 29 16 55 30 SW 1006,2 25 0 0,0
07.12.2018 18:00:00 11,6 7,0 10,9 9,4 9,9 9,5 29 16 44 24 SW 1006,9 73 0 0,0
07.12.2018 17:00:00 12,3 5,7 11,5 9,7 10,0 9,5 28 15 43 23 SW 1008,5 75 0 0,0
07.12.2018 16:00:00 12,0 7,6 11,5 10,3 10,1 9,5 24 13 44 24 SW 1009,2 73 5 0,0
07.12.2018 15:00:00 12,3 7,7 11,9 11,0 10,0 9,5 31 17 54 29 SW 1010,0 71 25 0,0
07.12.2018 14:00:00 12,4 7,8 12,1 10,6 9,9 9,4 35 19 59 32 SW 1011,5 75 0 0,0
07.12.2018 13:00:00 12,0 8,4 11,9 10,6 9,9 9,4 30 16 47 25 SW 1013,3 75 0 0,0
07.12.2018 12:00:00 12,1 8,5 11,9 10,7 9,8 9,4 35 19 50 27 SW 1014,2 75 0 0,0

tt = Température de l'air
td = dewpoint
tt 5cm = Température de l'air 5cm
tt -5cm = Température de l'air -5cm
tt -20cm = Température de l'air -20cm
tt -100cm = Température de l'air -100cm
ff = Vitesse du vent
fx = gusts
dd = Direction du vent
ppp = reduced air pressure
vv = visibility
sd = Ensoleillement
rr = Quantités de précipitations

stations d'obs. à proximité